Weather History for Bend, OR

Change the Weather History Date:

Tuesday, June 3, 2014

  Actual Average (KRDM) Record (KRDM)
Temperature  
Mean Temperature 58 °F 56 °F  
Max Temperature 73 °F 72 °F 95 °F (1970)
Min Temperature 44 °F 39 °F 26 °F (2001)
Degree Days  
Heating Degree Days 6 10  
Month to date heating degree days 30  
Since 1 June heating degree days 30  
Since 1 July heating degree days 6526  
Cooling Degree Days 0 0  
Month to date cooling degree days 0  
Year to date cooling degree days 5  
Since 1 June cooling degree days 0  
Growing Degree Days 8 (Base 50)    
Moisture  
Dew Point 35 °F    
Average Humidity 46    
Maximum Humidity 81    
Minimum Humidity 18    
Precipitation  
Precipitation 0.00 in 0.03 in 0.61 in (1988)
Month to date precipitation 0.09  
Year to date precipitation 4.13  
Sea Level Pressure  
Sea Level Pressure 29.98 in    
Wind  
Wind Speed 5 mph (WNW)    
Max Wind Speed 18 mph    
Max Gust Speed 24 mph    
Visibility 10 miles    
Events      
T = Trace of Precipitation, MM = Missing Value Source: NWS Daily Summary

Daily Weather History Graph

Daily Weather History Graph

Search for Another Location

Airport:

Trip Planner

Search our weather history database for the weather conditions in past years. The results will help you decide how hot, cold, wet, or windy it might be!

Date:

Astronomy

Jun. 03, 2014 Rise Set
Actual Time 5:23 AM PDT 8:42 PM PDT
Civil Twilight 4:48 AM PDT 9:18 PM PDT
Nautical Twilight 4:01 AM PDT 10:04 PM PDT
Astronomical Twilight 3:04 AM PDT 11:02 PM PDT
Moon 10:59 AM PDT (6/3) 12:06 AM PDT (6/3)
Length of Visible Light 16h 30m
Length of Day
15h 19m
Waxing Crescent, 31% of the Moon is Illuminated
Jun 3
Waxing Crescent
Jun 5
First Quarter
Jun 12
Full
Jun 19
Last Quarter
Jun 27
New

Hourly Weather History & Observations

Time (PDT) Temp. Windchill Dew Point Humidity Pressure Visibility Wind Dir Wind Speed Gust Speed Precip Events Conditions
12:15 AM 55.4 °F - 41.0 °F 58% 29.94 in 10.0 mi WNW 3.5 mph - N/A   Clear
12:35 AM 53.6 °F - 41.0 °F 62% 29.94 in 10.0 mi NNW 4.6 mph - N/A   Clear
12:55 AM 53.6 °F - 41.0 °F 62% 29.93 in 10.0 mi NNW 3.5 mph - N/A   Clear
1:15 AM 50.0 °F - 39.2 °F 66% 29.93 in 10.0 mi NW 4.6 mph - N/A   Clear
1:35 AM 48.2 °F - 39.2 °F 71% 29.93 in 10.0 mi Calm Calm - N/A   Clear
1:55 AM 48.2 °F - 39.2 °F 71% 29.93 in 10.0 mi Calm Calm - N/A   Clear
2:15 AM 48.2 °F - 39.2 °F 71% 29.93 in 10.0 mi Calm Calm - N/A   Clear
2:35 AM 48.2 °F - 39.2 °F 71% 29.93 in 10.0 mi South 5.8 mph - N/A   Clear
2:55 AM 48.2 °F - 39.2 °F 71% 29.93 in 10.0 mi SW 6.9 mph - N/A   Clear
3:15 AM 48.2 °F - 39.2 °F 71% 29.93 in 10.0 mi South 4.6 mph - N/A   Clear
3:35 AM 46.4 °F - 39.2 °F 76% 29.94 in 10.0 mi Calm Calm - N/A   Clear
3:55 AM 44.6 °F 41.4 °F 37.4 °F 76% 29.94 in 10.0 mi SSE 5.8 mph - N/A   Clear
4:15 AM 46.4 °F 44.3 °F 39.2 °F 76% 29.94 in 10.0 mi South 4.6 mph - N/A   Clear
4:35 AM 46.4 °F 44.3 °F 39.2 °F 76% 29.94 in 10.0 mi SSW 4.6 mph - N/A   Clear
4:55 AM 48.2 °F - 39.2 °F 71% 29.94 in 10.0 mi SSW 3.5 mph - N/A   Clear
5:15 AM 44.6 °F 43.1 °F 39.2 °F 81% 29.94 in 10.0 mi SSE 3.5 mph - N/A   Clear
5:35 AM 46.4 °F - 39.2 °F 76% 29.95 in 10.0 mi Calm Calm - N/A   Clear
5:55 AM 46.4 °F - 39.2 °F 76% 29.96 in 10.0 mi Calm Calm - N/A   Clear
6:15 AM 46.4 °F - 39.2 °F 76% 29.96 in 10.0 mi Calm Calm - N/A   Clear
6:35 AM 46.4 °F - 39.2 °F 76% 29.97 in 10.0 mi Calm Calm - N/A   Clear
6:55 AM 48.2 °F - 39.2 °F 71% 29.98 in 10.0 mi Calm Calm - N/A   Clear
7:15 AM 48.2 °F - 41.0 °F 76% 29.98 in 10.0 mi Calm Calm - N/A   Clear
7:35 AM 50.0 °F - 41.0 °F 71% 29.98 in 10.0 mi Calm Calm - N/A   Clear
7:55 AM 53.6 °F - 42.8 °F 67% 29.99 in 10.0 mi SSW 4.6 mph - N/A   Clear
8:15 AM 55.4 °F - 41.0 °F 58% 29.99 in 10.0 mi WSW 4.6 mph - N/A   Clear
8:35 AM 57.2 °F - 41.0 °F 55% 29.99 in 8.0 mi West 4.6 mph - N/A   Clear
8:55 AM 59.0 °F - 39.2 °F 48% 30.00 in 10.0 mi Calm Calm - N/A   Clear
9:15 AM 59.0 °F - 37.4 °F 45% 30.00 in 10.0 mi SW 8.1 mph - N/A   Clear
9:35 AM 62.6 °F - 39.2 °F 42% 30.00 in 10.0 mi WSW 5.8 mph - N/A   Clear
9:55 AM 62.6 °F - 35.6 °F 37% 29.99 in 10.0 mi WNW 3.5 mph - N/A   Clear
10:15 AM 62.6 °F - 33.8 °F 34% 29.99 in 10.0 mi Calm Calm - N/A   Clear
10:35 AM 64.4 °F - 32.0 °F 30% 29.99 in 10.0 mi NW 3.5 mph - N/A   Clear
10:55 AM 66.2 °F - 32.0 °F 28% 29.99 in 10.0 mi West 6.9 mph - N/A   Clear
11:15 AM 66.2 °F - 32.0 °F 28% 29.99 in 10.0 mi NNW 3.5 mph - N/A   Clear
11:35 AM 66.2 °F - 32.0 °F 28% 29.99 in 10.0 mi WSW 4.6 mph - N/A   Clear
11:55 AM 68.0 °F - 28.4 °F 23% 29.99 in 10.0 mi SW 3.5 mph - N/A   Clear
12:15 PM 69.8 °F - 30.2 °F 23% 29.98 in 10.0 mi East 5.8 mph - N/A   Clear
12:35 PM 69.8 °F - 28.4 °F 21% 29.98 in 10.0 mi West 4.6 mph - N/A   Clear
12:55 PM 69.8 °F - 32.0 °F 25% 29.97 in 10.0 mi ESE 3.5 mph - N/A   Clear
1:15 PM 71.6 °F - 32.0 °F 23% 29.97 in 10.0 mi NNW 8.1 mph 18.4 mph N/A   Clear
1:35 PM 69.8 °F - 32.0 °F 25% 29.97 in 10.0 mi NW 10.4 mph - N/A   Clear
1:55 PM 71.6 °F - 32.0 °F 23% 29.97 in 10.0 mi NW 9.2 mph 17.3 mph N/A   Clear
2:15 PM 73.4 °F - 32.0 °F 22% 29.97 in 9.0 mi NNW 10.4 mph 16.1 mph N/A   Clear
2:55 PM 73.4 °F - 32.0 °F 22% 29.97 in 10.0 mi NW 17.3 mph 20.7 mph N/A   Clear
3:15 PM 73.4 °F - 30.2 °F 20% 29.97 in 10.0 mi NNW 17.3 mph - N/A   Clear
3:35 PM 73.4 °F - 26.6 °F 18% 29.97 in 10.0 mi NNW 12.7 mph 21.9 mph N/A   Clear
3:55 PM 73.4 °F - 28.4 °F 19% 29.97 in 10.0 mi NNW 13.8 mph 18.4 mph N/A   Clear
4:15 PM 73.4 °F - 26.6 °F 18% 29.97 in 10.0 mi NNW 15.0 mph 20.7 mph N/A   Clear
4:35 PM 73.4 °F - 26.6 °F 18% 29.97 in 10.0 mi WNW 16.1 mph 20.7 mph N/A   Clear
4:55 PM 73.4 °F - 28.4 °F 19% 29.97 in 10.0 mi NW 13.8 mph 18.4 mph N/A   Clear
5:15 PM 73.4 °F - 28.4 °F 19% 29.96 in 10.0 mi NW 18.4 mph - N/A   Clear
5:35 PM 73.4 °F - 30.2 °F 20% 29.96 in 10.0 mi NNW 13.8 mph 19.6 mph N/A   Clear
5:55 PM 73.4 °F - 32.0 °F 22% 29.97 in 10.0 mi NW 16.1 mph 21.9 mph N/A   Clear
6:15 PM 71.6 °F - 32.0 °F 23% 29.97 in 10.0 mi NW 15.0 mph 24.2 mph N/A   Clear
6:55 PM 69.8 °F - 35.6 °F 28% 29.98 in 10.0 mi NW 16.1 mph 20.7 mph N/A   Clear
7:15 PM 68.0 °F - 35.6 °F 30% 29.99 in 10.0 mi NW 12.7 mph 20.7 mph N/A   Clear
7:35 PM 66.2 °F - 33.8 °F 30% 30.00 in 10.0 mi NW 12.7 mph - N/A   Clear
7:55 PM 66.2 °F - 33.8 °F 30% 30.01 in 10.0 mi NNW 10.4 mph 17.3 mph N/A   Clear
8:15 PM 64.4 °F - 32.0 °F 30% 30.02 in 10.0 mi NW 12.7 mph 16.1 mph N/A   Clear
8:35 PM 62.6 °F - 32.0 °F 32% 30.02 in 10.0 mi NNW 12.7 mph - N/A   Clear
8:55 PM 60.8 °F - 32.0 °F 34% 30.03 in 10.0 mi NNW 8.1 mph - N/A   Clear
9:15 PM 59.0 °F - 30.2 °F 34% 30.03 in 10.0 mi NNW 5.8 mph - N/A   Clear
9:35 PM 57.2 °F - 30.2 °F 36% 30.05 in 10.0 mi NW 5.8 mph - N/A   Clear
10:15 PM 53.6 °F - 32.0 °F 44% 30.06 in 10.0 mi Calm Calm - N/A   Clear
10:35 PM 50.0 °F - 32.0 °F 50% 30.07 in 10.0 mi Calm Calm - N/A   Clear
11:15 PM 50.0 °F - 32.0 °F 50% 30.07 in 10.0 mi Calm Calm - N/A   Clear
11:35 PM 46.4 °F - 32.0 °F 57% 30.07 in 10.0 mi Calm Calm - N/A   Clear
11:55 PM 44.6 °F - 32.0 °F 61% 30.08 in 10.0 mi Calm Calm - N/A   Clear